TimeCDT,TemperatureF,Dew PointF,Humidity,Sea Level PressureIn,VisibilityMPH,Wind Direction,Wind SpeedMPH,Gust SpeedMPH,PrecipitationIn,Events,Conditions,WindDirDegrees,DateUTC
12:51 AM,79.0,68.0,69,29.73,10.0,South,18.4,27.6,N/A,,Clear,170,2013-05-28 05:51:00
1:51 AM,78.1,69.1,74,29.72,10.0,South,16.1,26.5,N/A,,Clear,170,2013-05-28 06:51:00
2:51 AM,77.0,68.0,74,29.71,10.0,South,15.0,27.6,N/A,,Clear,180,2013-05-28 07:51:00
3:51 AM,75.9,68.0,76,29.72,10.0,South,10.4,16.1,N/A,,Partly Cloudy,170,2013-05-28 08:51:00
4:24 AM,75.2,68.0,78,29.80,10.0,South,11.5,18.4,N/A,,Mostly Cloudy,170,2013-05-28 09:24:00
4:51 AM,75.0,66.9,76,29.72,10.0,South,12.7,24.2,N/A,,Overcast,170,2013-05-28 09:51:00
5:21 AM,75.2,66.2,73,29.80,10.0,South,12.7,21.9,N/A,,Scattered Clouds,180,2013-05-28 10:21:00
5:51 AM,73.9,66.0,76,29.73,10.0,SSE,10.4,20.7,N/A,,Scattered Clouds,160,2013-05-28 10:51:00
6:14 AM,73.4,66.2,78,29.82,10.0,South,9.2,-,N/A,,Mostly Cloudy,190,2013-05-28 11:14:00
6:51 AM,73.9,66.0,76,29.77,10.0,South,17.3,21.9,N/A,,Overcast,180,2013-05-28 11:51:00
7:21 AM,73.4,66.2,78,29.80,10.0,SE,15.0,-,N/A,,Scattered Clouds,140,2013-05-28 12:21:00
7:51 AM,73.0,66.0,79,29.75,10.0,South,18.4,23.0,0.00,Rain,Light Rain,170,2013-05-28 12:51:00
8:12 AM,73.4,66.2,78,29.79,10.0,South,19.6,26.5,0.00,,Mostly Cloudy,170,2013-05-28 13:12:00
8:19 AM,73.4,66.2,78,29.80,9.0,South,16.1,25.3,0.00,,Scattered Clouds,180,2013-05-28 13:19:00
8:51 AM,73.0,66.0,79,29.78,9.0,SSW,15.0,28.8,0.00,,Mostly Cloudy,200,2013-05-28 13:51:00
9:04 AM,73.4,66.2,78,29.83,9.0,South,21.9,29.9,N/A,,Scattered Clouds,190,2013-05-28 14:04:00
9:51 AM,72.0,66.0,81,29.74,9.0,South,20.7,27.6,N/A,,Clear,170,2013-05-28 14:51:00
10:51 AM,73.9,66.0,76,29.78,10.0,South,13.8,25.3,N/A,,Scattered Clouds,190,2013-05-28 15:51:00
11:02 AM,73.4,66.2,78,29.84,10.0,South,15.0,21.9,N/A,,Mostly Cloudy,190,2013-05-28 16:02:00
11:51 AM,75.9,66.0,71,29.77,10.0,South,16.1,24.2,N/A,,Overcast,170,2013-05-28 16:51:00
12:51 PM,75.0,66.0,73,29.77,10.0,South,15.0,29.9,N/A,,Overcast,170,2013-05-28 17:51:00
1:51 PM,77.0,66.0,69,29.75,10.0,SE,12.7,-,N/A,,Mostly Cloudy,140,2013-05-28 18:51:00
2:51 PM,80.1,64.9,60,29.75,10.0,SE,13.8,-,N/A,,Mostly Cloudy,130,2013-05-28 19:51:00
3:51 PM,82.0,64.9,56,29.70,10.0,SSE,15.0,23.0,0.00,,Clear,150,2013-05-28 20:51:00
4:51 PM,82.0,64.9,56,29.69,10.0,SSE,9.2,21.9,N/A,,Clear,160,2013-05-28 21:51:00
5:36 PM,82.4,64.4,54,29.78,10.0,Calm,Calm,-,N/A,Thunderstorm,Scattered Clouds,0,2013-05-28 22:36:00
5:51 PM,81.0,66.0,60,29.72,10.0,ESE,4.6,-,N/A,Thunderstorm,Mostly Cloudy,110,2013-05-28 22:51:00
6:51 PM,80.1,66.0,62,29.68,10.0,SSE,9.2,-,0.01,Rain-Thunderstorm,Light Rain,160,2013-05-28 23:51:00
7:51 PM,81.0,64.9,58,29.64,10.0,SSE,16.1,24.2,0.00,,Partly Cloudy,150,2013-05-29 00:51:00
8:51 PM,80.1,66.0,62,29.62,10.0,SSE,17.3,28.8,0.00,,Unknown,150,2013-05-29 01:51:00
9:51 PM,80.1,66.0,62,29.63,10.0,SSE,19.6,28.8,N/A,,Clear,150,2013-05-29 02:51:00
10:38 PM,80.6,66.2,61,29.76,10.0,SSE,12.7,26.5,N/A,Thunderstorm,Clear,160,2013-05-29 03:38:00
10:51 PM,79.0,66.9,66,29.63,10.0,SE,23.0,31.1,0.00,Rain,Light Rain,130,2013-05-29 03:51:00
11:08 PM,78.8,68.0,69,29.72,10.0,SE,21.9,29.9,0.00,Rain-Thunderstorm,Light Rain,130,2013-05-29 04:08:00
11:23 PM,78.8,68.0,69,29.71,10.0,SE,19.6,32.2,0.00,,Partly Cloudy,140,2013-05-29 04:23:00
11:51 PM,78.1,66.9,68,29.63,10.0,SSE,21.9,32.2,0.00,,Clear,150,2013-05-29 04:51:00